Location: Unspecified
(46.0460°N, 0.0000°E)
Time: 00:36:00
(UTC+00:00)

NOAA 19 - Visible Passes

Search period start: 05 April 2026 00:00
Search period end: 15 April 2026 00:00
Orbit: 838 x 857 km, 99.0° (Epoch: 29 March)

Date Brightness Start Highest point End Pass type
(mag) Time Alt. Az. Time Alt. Az. Time Alt. Az.
5 Apr 6.1 20:32:55 30° E 20:33:59 32° ENE 20:38:50 10° N visible
5 Apr 6.1 22:14:51 41° W 22:14:51 41° W 22:19:42 10° NNW visible
6 Apr 6.4 20:19:54 23° E 20:21:21 26° ENE 20:25:51 10° N visible
6 Apr 5.7 22:01:50 53° W 22:01:50 53° W 22:07:04 10° NNW visible
7 Apr 6.7 20:06:54 18° E 20:08:45 21° ENE 20:12:48 10° NNE visible
7 Apr 5.3 21:48:49 68° WSW 21:48:51 68° WSW 21:54:23 10° NNW visible
8 Apr 6.9 19:53:52 14° E 19:56:11 17° NE 19:59:39 10° NNE visible
8 Apr 5.1 21:35:48 81° SSW 21:36:05 85° WSW 21:41:40 10° NNW visible
8 Apr 7.6 23:17:44 13° W 23:17:44 13° W 23:19:51 10° WNW visible
9 Apr 7.1 19:40:55 10° E 19:43:37 14° NE 19:46:20 10° NNE visible
9 Apr 5.1 21:22:47 70° ESE 21:23:20 77° ENE 21:28:53 10° NNW visible
9 Apr 7.4 23:04:43 17° W 23:04:43 17° W 23:08:00 10° NW visible
10 Apr 7.2 19:29:37 10° ENE 19:31:06 11° NE 19:32:35 10° NE visible
10 Apr 5.3 21:09:47 54° ESE 21:10:37 61° ENE 21:16:05 10° N visible
10 Apr 7.1 22:51:43 21° W 22:51:43 21° W 22:55:48 10° NW visible
11 Apr 5.6 20:56:46 42° ESE 20:57:55 48° ENE 21:03:14 10° N visible
11 Apr 6.7 22:38:42 27° W 22:38:44 27° W 22:43:23 10° NW visible
12 Apr 5.9 20:43:45 32° E 20:45:15 39° ENE 20:50:20 10° N visible
12 Apr 6.4 22:25:41 34° W 22:25:53 34° W 22:30:54 10° NNW visible
13 Apr 6.2 20:30:45 25° E 20:32:36 31° ENE 20:37:24 10° N visible
13 Apr 6.0 22:12:41 43° WSW 22:13:03 43° W 22:18:19 10° NNW visible
14 Apr 6.5 20:17:44 19° E 20:19:59 25° ENE 20:24:25 10° N visible
14 Apr 5.6 21:59:40 53° SW 22:00:13 55° W 22:05:41 10° NNW visible
